Terminal Aerodrome Forecast
Issued by NWS Pittsburgh, PA

Current Version | Previous Version | Graphics & Text | Print | Product List | Glossary On
Versions: 1 2 3 4 5 6 7 8 9 10 11 12 13 14 15 16 17 18 19 20 21 22 23 24 25 26 27 28 29 30 31 32 33
000
FTUS41 KPBZ 280800 AAA
TAFPIT
TAF AMD
KPIT 280854Z 2809/2912 28006KT P6SM -SHSN BKN013
      TEMPO 2809/2811 SCT018
     FM281100 27003KT P6SM SKC
     FM290400 VRB03KT P6SM BKN100=

USA.gov is the U.S. government's official web portal to all federal, state and local government web resources and services.